Time,TemperatureF,DewpointF,PressureIn,WindDirection,WindDirectionDegrees,WindSpeedMPH,WindSpeedGustMPH,Humidity,HourlyPrecipIn,Conditions,Clouds,dailyrainin,SoftwareType,DateUTC
2013-12-26 00:00:00,29.8,26.4,30.18,SSW,207,2.0,4.0,87,0.00,,,0.00,Wunderground v.1.15,2013-12-26 05:00:00,
2013-12-26 00:05:00,29.9,26.5,30.18,SSW,204,3.0,4.0,87,0.00,,,0.00,Wunderground v.1.15,2013-12-26 05:05:00,
2013-12-26 00:10:00,29.9,26.5,30.18,SSW,209,3.0,4.0,87,0.00,,,0.00,Wunderground v.1.15,2013-12-26 05:10:00,
2013-12-26 00:15:00,30.0,26.6,30.17,SSW,205,3.0,4.0,87,0.00,,,0.00,Wunderground v.1.15,2013-12-26 05:15:00,
2013-12-26 00:20:00,30.0,26.6,30.17,SSW,206,3.0,5.0,87,0.00,,,0.00,Wunderground v.1.15,2013-12-26 05:20:00,
2013-12-26 00:25:00,30.1,26.7,30.17,SW,217,3.0,5.0,87,0.00,,,0.00,Wunderground v.1.15,2013-12-26 05:25:00,
2013-12-26 00:30:00,30.1,26.7,30.17,SSW,205,2.0,4.0,87,0.00,,,0.00,Wunderground v.1.15,2013-12-26 05:30:00,
2013-12-26 00:35:00,30.2,26.8,30.17,SSW,203,3.0,4.0,87,0.00,,,0.00,Wunderground v.1.15,2013-12-26 05:35:00,
2013-12-26 00:45:00,30.3,26.9,30.16,SSW,200,4.0,4.0,87,0.00,,,0.00,Wunderground v.1.15,2013-12-26 05:45:00,
2013-12-26 00:50:00,30.3,26.6,30.16,SSW,205,4.0,4.0,86,0.00,,,0.00,Wunderground v.1.15,2013-12-26 05:50:00,
2013-12-26 00:55:00,30.2,26.5,30.16,West,262,3.0,4.0,86,0.00,,,0.00,Wunderground v.1.15,2013-12-26 05:55:00,
2013-12-26 01:00:00,30.1,26.4,30.16,South,189,2.0,4.0,86,0.00,,,0.00,Wunderground v.1.15,2013-12-26 06:00:00,
2013-12-26 01:05:00,30.1,26.4,30.15,SW,216,2.0,4.0,86,0.00,,,0.00,Wunderground v.1.15,2013-12-26 06:05:00,
2013-12-26 01:10:00,30.1,26.4,30.15,SW,223,2.0,2.0,86,0.00,,,0.00,Wunderground v.1.15,2013-12-26 06:10:00,
2013-12-26 01:20:00,30.0,26.3,30.15,SSW,211,2.0,4.0,86,0.00,,,0.00,Wunderground v.1.15,2013-12-26 06:20:00,
2013-12-26 01:25:00,30.0,26.3,30.14,SSW,209,2.0,4.0,86,0.00,,,0.00,Wunderground v.1.15,2013-12-26 06:25:00,
2013-12-26 01:35:00,30.0,26.3,30.14,South,180,1.0,4.0,86,0.00,,,0.00,Wunderground v.1.15,2013-12-26 06:35:00,
2013-12-26 01:40:00,30.0,26.3,30.14,South,184,2.0,2.0,86,0.00,,,0.00,Wunderground v.1.15,2013-12-26 06:40:00,
2013-12-26 01:45:00,30.0,26.3,30.13,SSW,208,2.0,4.0,86,0.00,,,0.00,Wunderground v.1.15,2013-12-26 06:45:00,
2013-12-26 01:55:00,30.0,26.3,30.13,SSW,207,1.0,4.0,86,0.00,,,0.00,Wunderground v.1.15,2013-12-26 06:55:00,
2013-12-26 02:00:00,30.0,26.3,30.13,SSW,207,1.0,4.0,86,0.00,,,0.00,Wunderground v.1.15,2013-12-26 07:00:00,
2013-12-26 02:05:00,30.1,26.1,30.13,South,176,2.0,4.0,85,0.00,,,0.00,Wunderground v.1.15,2013-12-26 07:05:00,
2013-12-26 02:10:00,30.1,26.1,30.13,SSW,211,2.0,2.0,85,0.00,,,0.00,Wunderground v.1.15,2013-12-26 07:10:00,
2013-12-26 02:15:00,30.2,26.2,30.13,South,191,1.0,4.0,85,0.00,,,0.00,Wunderground v.1.15,2013-12-26 07:15:00,
2013-12-26 02:25:00,30.2,25.9,30.13,South,183,2.0,4.0,84,0.00,,,0.00,Wunderground v.1.15,2013-12-26 07:25:00,
2013-12-26 02:30:00,30.3,26.0,30.13,SSW,198,1.0,1.0,84,0.00,,,0.00,Wunderground v.1.15,2013-12-26 07:30:00,
2013-12-26 02:40:00,30.5,26.0,30.13,SSW,202,3.0,4.0,83,0.00,,,0.00,Wunderground v.1.15,2013-12-26 07:40:00,
2013-12-26 02:45:00,30.5,26.0,30.13,South,173,3.0,4.0,83,0.00,,,0.00,Wunderground v.1.15,2013-12-26 07:45:00,
2013-12-26 02:50:00,30.5,26.0,30.13,SSW,207,2.0,2.0,83,0.00,,,0.00,Wunderground v.1.15,2013-12-26 07:50:00,
2013-12-26 03:00:00,30.5,26.0,30.12,SW,215,2.0,4.0,83,0.00,,,0.00,Wunderground v.1.15,2013-12-26 08:00:00,
2013-12-26 03:05:00,30.6,26.1,30.12,SSW,205,3.0,4.0,83,0.00,,,0.00,Wunderground v.1.15,2013-12-26 08:05:00,
2013-12-26 03:10:00,30.6,26.1,30.12,SSW,208,2.0,2.0,83,0.00,,,0.00,Wunderground v.1.15,2013-12-26 08:10:00,
2013-12-26 03:15:00,30.7,26.1,30.12,SSW,195,1.0,5.0,83,0.00,,,0.00,Wunderground v.1.15,2013-12-26 08:15:00,
2013-12-26 03:20:00,30.8,26.2,30.12,SW,216,1.0,1.0,83,0.00,,,0.00,Wunderground v.1.15,2013-12-26 08:20:00,
2013-12-26 03:25:00,30.8,26.2,30.12,SW,216,1.0,4.0,83,0.00,,,0.00,Wunderground v.1.15,2013-12-26 08:25:00,
2013-12-26 03:35:00,31.0,26.7,30.12,SSW,212,2.0,3.0,84,0.00,,,0.00,Wunderground v.1.15,2013-12-26 08:35:00,
2013-12-26 03:40:00,31.0,26.4,30.12,SSW,202,2.0,2.0,83,0.00,,,0.00,Wunderground v.1.15,2013-12-26 08:40:00,
2013-12-26 03:50:00,31.1,26.8,30.11,WSW,248,2.0,2.0,84,0.00,,,0.00,Wunderground v.1.15,2013-12-26 08:50:00,
2013-12-26 03:55:00,31.2,26.6,30.11,WSW,253,2.0,4.0,83,0.00,,,0.00,Wunderground v.1.15,2013-12-26 08:55:00,
2013-12-26 04:00:00,31.2,26.6,30.11,WSW,240,2.0,4.0,83,0.00,,,0.00,Wunderground v.1.15,2013-12-26 09:00:00,
2013-12-26 04:10:00,31.4,26.8,30.11,WSW,240,2.0,2.0,83,0.00,,,0.00,Wunderground v.1.15,2013-12-26 09:10:00,
2013-12-26 04:15:00,31.3,27.0,30.11,SW,215,1.0,4.0,84,0.00,,,0.00,Wunderground v.1.15,2013-12-26 09:15:00,
2013-12-26 04:20:00,31.4,27.1,30.11,WNW,283,1.0,4.0,84,0.00,,,0.00,Wunderground v.1.15,2013-12-26 09:20:00,
2013-12-26 04:25:00,31.4,27.1,30.10,WSW,241,2.0,4.0,84,0.00,,,0.00,Wunderground v.1.15,2013-12-26 09:25:00,
2013-12-26 04:30:00,31.4,26.8,30.10,SW,236,2.0,2.0,83,0.00,,,0.00,Wunderground v.1.15,2013-12-26 09:30:00,
2013-12-26 04:40:00,31.7,27.1,30.10,WSW,242,3.0,3.0,83,0.00,,,0.00,Wunderground v.1.15,2013-12-26 09:40:00,
2013-12-26 04:45:00,31.9,27.3,30.11,SW,226,4.0,4.0,83,0.00,,,0.00,Wunderground v.1.15,2013-12-26 09:45:00,
2013-12-26 04:50:00,32.0,27.1,30.10,WSW,248,4.0,7.0,82,0.00,,,0.00,Wunderground v.1.15,2013-12-26 09:50:00,
2013-12-26 04:55:00,32.1,27.2,30.10,SW,232,5.0,9.0,82,0.00,,,0.00,Wunderground v.1.15,2013-12-26 09:55:00,
2013-12-26 05:00:00,32.2,27.3,30.11,SW,231,5.0,5.0,82,0.00,,,0.00,Wunderground v.1.15,2013-12-26 10:00:00,
2013-12-26 05:05:00,32.2,27.0,30.11,WSW,258,5.0,5.0,81,0.00,,,0.00,Wunderground v.1.15,2013-12-26 10:05:00,
2013-12-26 05:10:00,32.3,27.1,30.11,WSW,252,6.0,6.0,81,0.00,,,0.00,Wunderground v.1.15,2013-12-26 10:10:00,
2013-12-26 05:15:00,32.4,27.2,30.11,West,267,6.0,6.0,81,0.00,,,0.00,Wunderground v.1.15,2013-12-26 10:15:00,
2013-12-26 05:20:00,32.4,27.2,30.11,West,273,6.0,8.0,81,0.00,,,0.00,Wunderground v.1.15,2013-12-26 10:20:00,
2013-12-26 05:25:00,32.3,27.1,30.12,West,277,6.0,8.0,81,0.00,,,0.00,Wunderground v.1.15,2013-12-26 10:25:00,
2013-12-26 05:30:00,32.3,27.1,30.12,West,267,7.0,9.0,81,0.00,,,0.00,Wunderground v.1.15,2013-12-26 10:30:00,
2013-12-26 05:35:00,32.4,27.5,30.12,West,261,7.0,9.0,82,0.00,,,0.00,Wunderground v.1.15,2013-12-26 10:35:00,
2013-12-26 05:45:00,32.2,27.9,30.12,WSW,257,8.0,11.0,84,0.00,,,0.00,Wunderground v.1.15,2013-12-26 10:45:00,
2013-12-26 05:50:00,32.1,27.8,30.12,WSW,246,7.0,7.0,84,0.00,,,0.00,Wunderground v.1.15,2013-12-26 10:50:00,
2013-12-26 05:55:00,32.1,27.8,30.12,West,259,6.0,7.0,84,0.00,,,0.00,Wunderground v.1.15,2013-12-26 10:55:00,
2013-12-26 06:00:00,32.1,28.1,30.11,West,273,6.0,6.0,85,0.00,,,0.00,Wunderground v.1.15,2013-12-26 11:00:00,
2013-12-26 06:05:00,32.1,27.8,30.12,West,274,6.0,11.0,84,0.00,,,0.00,Wunderground v.1.15,2013-12-26 11:05:00,
2013-12-26 06:10:00,32.2,27.9,30.12,SW,235,7.0,9.0,84,0.00,,,0.00,Wunderground v.1.15,2013-12-26 11:10:00,
2013-12-26 06:15:00,32.3,28.0,30.12,WSW,239,8.0,12.0,84,0.00,,,0.00,Wunderground v.1.15,2013-12-26 11:15:00,
2013-12-26 06:20:00,32.3,27.7,30.13,WSW,250,9.0,12.0,83,0.00,,,0.00,Wunderground v.1.15,2013-12-26 11:20:00,
2013-12-26 06:25:00,32.3,27.7,30.13,WSW,250,8.0,12.0,83,0.00,,,0.00,Wunderground v.1.15,2013-12-26 11:25:00,
2013-12-26 06:30:00,32.3,27.7,30.13,WSW,251,8.0,8.0,83,0.00,,,0.00,Wunderground v.1.15,2013-12-26 11:30:00,
2013-12-26 06:35:00,32.4,27.8,30.13,West,275,8.0,9.0,83,0.00,,,0.00,Wunderground v.1.15,2013-12-26 11:35:00,
2013-12-26 06:40:00,32.4,27.8,30.13,SW,231,8.0,8.0,83,0.00,,,0.00,Wunderground v.1.15,2013-12-26 11:40:00,
2013-12-26 06:45:00,32.3,27.4,30.13,WNW,288,10.0,17.0,82,0.00,,,0.00,Wunderground v.1.15,2013-12-26 11:45:00,
2013-12-26 06:55:00,32.3,27.4,30.14,West,277,11.0,15.0,82,0.00,,,0.00,Wunderground v.1.15,2013-12-26 11:55:00,
2013-12-26 07:05:00,32.3,27.4,30.14,WSW,239,8.0,8.0,82,0.00,,,0.00,Wunderground v.1.15,2013-12-26 12:05:00,
2013-12-26 07:10:00,32.3,27.4,30.14,SW,231,8.0,9.0,82,0.00,,,0.00,Wunderground v.1.15,2013-12-26 12:10:00,
2013-12-26 07:15:00,32.3,27.4,30.14,West,269,8.0,9.0,82,0.00,,,0.00,Wunderground v.1.15,2013-12-26 12:15:00,
2013-12-26 07:20:00,32.3,27.4,30.14,SW,226,8.0,12.0,82,0.00,,,0.00,Wunderground v.1.15,2013-12-26 12:20:00,
2013-12-26 07:30:00,32.2,27.3,30.14,WSW,244,7.0,7.0,82,0.00,,,0.00,Wunderground v.1.15,2013-12-26 12:30:00,
2013-12-26 07:35:00,32.1,27.5,30.14,SW,236,6.0,8.0,83,0.00,,,0.00,Wunderground v.1.15,2013-12-26 12:35:00,
2013-12-26 07:40:00,32.1,27.8,30.14,SW,225,6.0,6.0,84,0.00,,,0.00,Wunderground v.1.15,2013-12-26 12:40:00,
2013-12-26 07:45:00,32.0,27.7,30.15,SW,229,7.0,8.0,84,0.00,,,0.00,Wunderground v.1.15,2013-12-26 12:45:00,
2013-12-26 07:50:00,31.9,27.6,30.15,WSW,246,8.0,8.0,84,0.00,,,0.00,Wunderground v.1.15,2013-12-26 12:50:00,
2013-12-26 08:00:00,31.9,27.9,30.15,SW,232,5.0,5.0,85,0.00,,,0.00,Wunderground v.1.15,2013-12-26 13:00:00,
2013-12-26 08:10:00,31.9,27.9,30.15,WSW,246,7.0,7.0,85,0.00,,,0.00,Wunderground v.1.15,2013-12-26 13:10:00,
2013-12-26 08:15:00,31.9,27.9,30.16,WSW,242,6.0,7.0,85,0.00,,,0.00,Wunderground v.1.15,2013-12-26 13:15:00,
2013-12-26 08:20:00,31.9,27.9,30.16,WSW,257,6.0,6.0,85,0.00,,,0.00,Wunderground v.1.15,2013-12-26 13:20:00,
2013-12-26 08:25:00,31.9,27.9,30.16,SW,234,6.0,6.0,85,0.00,,,0.00,Wunderground v.1.15,2013-12-26 13:25:00,
2013-12-26 08:30:00,32.0,28.0,30.16,WSW,244,6.0,6.0,85,0.00,,,0.00,Wunderground v.1.15,2013-12-26 13:30:00,
2013-12-26 08:40:00,32.1,27.8,30.16,WSW,251,7.0,7.0,84,0.00,,,0.00,Wunderground v.1.15,2013-12-26 13:40:00,
2013-12-26 08:45:00,32.2,27.9,30.16,SW,218,8.0,8.0,84,0.00,,,0.00,Wunderground v.1.15,2013-12-26 13:45:00,
2013-12-26 08:50:00,32.2,27.9,30.17,West,276,7.0,10.0,84,0.00,,,0.00,Wunderground v.1.15,2013-12-26 13:50:00,
2013-12-26 08:55:00,32.2,27.9,30.17,West,263,7.0,10.0,84,0.00,,,0.00,Wunderground v.1.15,2013-12-26 13:55:00,
2013-12-26 09:05:00,32.3,28.0,30.18,West,261,7.0,8.0,84,0.00,,,0.00,Wunderground v.1.15,2013-12-26 14:05:00,
2013-12-26 09:10:00,32.4,28.1,30.18,West,274,7.0,14.0,84,0.00,,,0.00,Wunderground v.1.15,2013-12-26 14:10:00,
2013-12-26 09:20:00,32.5,27.0,30.18,West,262,12.0,12.0,80,0.00,,,0.00,Wunderground v.1.15,2013-12-26 14:20:00,
2013-12-26 09:25:00,32.5,27.0,30.19,West,268,12.0,12.0,80,0.00,,,0.00,Wunderground v.1.15,2013-12-26 14:25:00,
2013-12-26 09:30:00,32.5,26.7,30.19,West,277,10.0,12.0,79,0.00,,,0.00,Wunderground v.1.15,2013-12-26 14:30:00,
2013-12-26 09:35:00,32.5,26.1,30.20,West,265,12.0,12.0,77,0.00,,,0.00,Wunderground v.1.15,2013-12-26 14:35:00,
2013-12-26 09:45:00,32.3,25.6,30.20,West,279,12.0,16.0,76,0.00,,,0.00,Wunderground v.1.15,2013-12-26 14:45:00,
2013-12-26 09:50:00,32.4,25.7,30.20,West,274,13.0,13.0,76,0.00,,,0.00,Wunderground v.1.15,2013-12-26 14:50:00,
2013-12-26 09:55:00,32.6,25.9,30.20,West,273,11.0,14.0,76,0.00,,,0.00,Wunderground v.1.15,2013-12-26 14:55:00,
2013-12-26 10:00:00,32.8,26.1,30.21,West,277,9.0,11.0,76,0.00,,,0.00,Wunderground v.1.15,2013-12-26 15:00:00,
2013-12-26 10:05:00,32.8,26.1,30.21,West,277,9.0,11.0,76,0.00,,,0.00,Wunderground v.1.15,2013-12-26 15:05:00,
2013-12-26 10:10:00,32.7,26.3,30.21,WNW,285,8.0,8.0,77,0.00,,,0.00,Wunderground v.1.15,2013-12-26 15:10:00,
2013-12-26 10:20:00,32.8,25.7,30.21,West,277,10.0,13.0,75,0.00,,,0.00,Wunderground v.1.15,2013-12-26 15:20:00,
2013-12-26 10:30:00,33.2,25.5,30.22,West,263,12.0,16.0,73,0.00,,,0.00,Wunderground v.1.15,2013-12-26 15:30:00,
2013-12-26 10:35:00,33.5,25.8,30.22,WSW,254,12.0,16.0,73,0.00,,,0.00,Wunderground v.1.15,2013-12-26 15:35:00,
2013-12-26 10:40:00,33.5,24.8,30.22,West,275,12.0,12.0,70,0.00,,,0.00,Wunderground v.1.15,2013-12-26 15:40:00,
2013-12-26 10:45:00,33.0,24.6,30.22,West,275,11.0,13.0,71,0.00,,,0.00,Wunderground v.1.15,2013-12-26 15:45:00,
2013-12-26 10:55:00,32.9,24.2,30.23,West,276,11.0,13.0,70,0.00,,,0.00,Wunderground v.1.15,2013-12-26 15:55:00,
2013-12-26 11:00:00,32.6,24.2,30.23,WNW,296,10.0,10.0,71,0.00,,,0.00,Wunderground v.1.15,2013-12-26 16:00:00,
2013-12-26 11:05:00,32.7,24.0,30.23,West,281,9.0,10.0,70,0.00,,,0.00,Wunderground v.1.15,2013-12-26 16:05:00,
2013-12-26 11:10:00,32.8,24.4,30.23,WNW,293,9.0,9.0,71,0.00,,,0.00,Wunderground v.1.15,2013-12-26 16:10:00,
2013-12-26 11:15:00,32.8,24.1,30.23,West,275,8.0,12.0,70,0.00,,,0.00,Wunderground v.1.15,2013-12-26 16:15:00,
2013-12-26 11:25:00,33.1,23.7,30.23,West,273,14.0,18.0,68,0.00,,,0.00,Wunderground v.1.15,2013-12-26 16:25:00,
2013-12-26 11:35:00,34.1,24.3,30.23,WNW,286,12.0,17.0,67,0.00,,,0.00,Wunderground v.1.15,2013-12-26 16:35:00,
2013-12-26 11:40:00,34.6,23.3,30.23,West,262,11.0,11.0,63,0.00,,,0.00,Wunderground v.1.15,2013-12-26 16:40:00,
2013-12-26 11:45:00,33.3,23.2,30.23,West,273,10.0,12.0,66,0.00,,,0.00,Wunderground v.1.15,2013-12-26 16:45:00,
2013-12-26 11:50:00,33.6,23.4,30.23,SW,234,10.0,14.0,66,0.00,,,0.00,Wunderground v.1.15,2013-12-26 16:50:00,
2013-12-26 12:00:00,33.6,23.4,30.22,SW,223,11.0,11.0,66,0.00,,,0.00,Wunderground v.1.15,2013-12-26 17:00:00,
2013-12-26 12:05:00,34.4,24.6,30.22,WSW,256,10.0,12.0,67,0.00,,,0.00,Wunderground v.1.15,2013-12-26 17:05:00,
2013-12-26 12:10:00,35.2,24.6,30.22,West,280,10.0,13.0,65,0.00,,,0.00,Wunderground v.1.15,2013-12-26 17:10:00,
2013-12-26 12:15:00,35.2,24.6,30.22,WNW,291,10.0,13.0,65,0.00,,,0.00,Wunderground v.1.15,2013-12-26 17:15:00,
2013-12-26 12:20:00,35.8,24.4,30.22,SW,217,11.0,11.0,63,0.00,,,0.00,Wunderground v.1.15,2013-12-26 17:20:00,
2013-12-26 12:30:00,36.0,24.6,30.22,SSW,204,12.0,13.0,63,0.00,,,0.00,Wunderground v.1.15,2013-12-26 17:30:00,
2013-12-26 12:40:00,36.0,24.2,30.22,WSW,250,11.0,11.0,62,0.00,,,0.00,Wunderground v.1.15,2013-12-26 17:40:00,
2013-12-26 12:45:00,36.5,25.1,30.21,West,263,12.0,12.0,63,0.00,,,0.00,Wunderground v.1.15,2013-12-26 17:45:00,
2013-12-26 12:50:00,36.8,25.0,30.21,WSW,257,10.0,12.0,62,0.00,,,0.00,Wunderground v.1.15,2013-12-26 17:50:00,
2013-12-26 12:55:00,37.4,25.6,30.21,WNW,284,8.0,12.0,62,0.00,,,0.00,Wunderground v.1.15,2013-12-26 17:55:00,
2013-12-26 13:00:00,37.4,25.2,30.21,West,269,10.0,13.0,61,0.00,,,0.00,Wunderground v.1.15,2013-12-26 18:00:00,
2013-12-26 13:10:00,37.5,24.9,30.21,West,267,9.0,12.0,60,0.00,,,0.00,Wunderground v.1.15,2013-12-26 18:10:00,
2013-12-26 13:15:00,37.1,24.5,30.22,WSW,251,10.0,18.0,60,0.00,,,0.00,Wunderground v.1.15,2013-12-26 18:15:00,
2013-12-26 13:20:00,36.7,24.1,30.22,WSW,248,12.0,12.0,60,0.00,,,0.00,Wunderground v.1.15,2013-12-26 18:20:00,
2013-12-26 13:25:00,36.9,25.1,30.22,West,275,10.0,12.0,62,0.00,,,0.00,Wunderground v.1.15,2013-12-26 18:25:00,
2013-12-26 13:35:00,37.4,25.2,30.22,West,275,12.0,12.0,61,0.00,,,0.00,Wunderground v.1.15,2013-12-26 18:35:00,
2013-12-26 13:45:00,37.3,24.7,30.21,West,264,13.0,15.0,60,0.00,,,0.00,Wunderground v.1.15,2013-12-26 18:45:00,
2013-12-26 13:50:00,37.8,25.1,30.21,WNW,287,11.0,11.0,60,0.00,,,0.00,Wunderground v.1.15,2013-12-26 18:50:00,
2013-12-26 13:55:00,38.0,25.3,30.21,WSW,247,10.0,11.0,60,0.00,,,0.00,Wunderground v.1.15,2013-12-26 18:55:00,
2013-12-26 14:00:00,37.9,24.4,30.21,WSW,251,11.0,11.0,58,0.00,,,0.00,Wunderground v.1.15,2013-12-26 19:00:00,
2013-12-26 14:05:00,37.9,24.4,30.21,WSW,254,11.0,12.0,58,0.00,,,0.00,Wunderground v.1.15,2013-12-26 19:05:00,
2013-12-26 14:10:00,37.5,24.1,30.21,WSW,248,11.0,11.0,58,0.00,,,0.00,Wunderground v.1.15,2013-12-26 19:10:00,
2013-12-26 14:15:00,37.4,24.4,30.21,WSW,252,12.0,14.0,59,0.00,,,0.00,Wunderground v.1.15,2013-12-26 19:15:00,
2013-12-26 14:20:00,37.4,24.8,30.21,WNW,285,12.0,12.0,60,0.00,,,0.00,Wunderground v.1.15,2013-12-26 19:20:00,
2013-12-26 14:25:00,37.5,24.5,30.21,West,269,12.0,14.0,59,0.00,,,0.00,Wunderground v.1.15,2013-12-26 19:25:00,
2013-12-26 14:30:00,37.2,23.4,30.21,WSW,250,13.0,23.0,57,0.00,,,0.00,Wunderground v.1.15,2013-12-26 19:30:00,
2013-12-26 14:35:00,37.3,23.0,30.21,WSW,250,13.0,23.0,56,0.00,,,0.00,Wunderground v.1.15,2013-12-26 19:35:00,
2013-12-26 14:45:00,37.2,23.4,30.21,WNW,292,12.0,13.0,57,0.00,,,0.00,Wunderground v.1.15,2013-12-26 19:45:00,
2013-12-26 14:55:00,37.2,23.4,30.21,West,273,11.0,12.0,57,0.00,,,0.00,Wunderground v.1.15,2013-12-26 19:55:00,
2013-12-26 15:00:00,37.2,22.5,30.22,West,260,13.0,13.0,55,0.00,,,0.00,Wunderground v.1.15,2013-12-26 20:00:00,
2013-12-26 15:05:00,37.1,21.5,30.22,West,266,13.0,13.0,53,0.00,,,0.00,Wunderground v.1.15,2013-12-26 20:05:00,
2013-12-26 15:10:00,36.8,21.3,30.22,WSW,248,11.0,11.0,53,0.00,,,0.00,Wunderground v.1.15,2013-12-26 20:10:00,
2013-12-26 15:15:00,36.4,20.9,30.22,WSW,254,12.0,14.0,53,0.00,,,0.00,Wunderground v.1.15,2013-12-26 20:15:00,
2013-12-26 15:20:00,36.1,21.0,30.22,West,276,14.0,14.0,54,0.00,,,0.00,Wunderground v.1.15,2013-12-26 20:20:00,
2013-12-26 15:25:00,36.0,20.9,30.23,West,262,14.0,14.0,54,0.00,,,0.00,Wunderground v.1.15,2013-12-26 20:25:00,
2013-12-26 15:30:00,35.9,21.7,30.23,West,277,14.0,14.0,56,0.00,,,0.00,Wunderground v.1.15,2013-12-26 20:30:00,
2013-12-26 15:35:00,36.1,21.9,30.23,West,269,12.0,14.0,56,0.00,,,0.00,Wunderground v.1.15,2013-12-26 20:35:00,
2013-12-26 15:40:00,36.2,22.4,30.23,West,263,10.0,10.0,57,0.00,,,0.00,Wunderground v.1.15,2013-12-26 20:40:00,
2013-12-26 15:45:00,36.2,22.0,30.23,WNW,292,10.0,10.0,56,0.00,,,0.00,Wunderground v.1.15,2013-12-26 20:45:00,
2013-12-26 15:55:00,36.0,22.2,30.23,West,271,10.0,12.0,57,0.00,,,0.00,Wunderground v.1.15,2013-12-26 20:55:00,
2013-12-26 16:05:00,35.9,22.1,30.24,WSW,255,9.0,11.0,57,0.00,,,0.00,Wunderground v.1.15,2013-12-26 21:05:00,
2013-12-26 16:10:00,35.8,22.5,30.24,West,275,9.0,9.0,58,0.00,,,0.00,Wunderground v.1.15,2013-12-26 21:10:00,
2013-12-26 16:15:00,35.7,22.4,30.24,WNW,288,7.0,9.0,58,0.00,,,0.00,Wunderground v.1.15,2013-12-26 21:15:00,
2013-12-26 16:20:00,35.7,21.9,30.24,West,276,8.0,13.0,57,0.00,,,0.00,Wunderground v.1.15,2013-12-26 21:20:00,
2013-12-26 16:25:00,35.6,21.9,30.25,West,273,9.0,13.0,57,0.00,,,0.00,Wunderground v.1.15,2013-12-26 21:25:00,
2013-12-26 16:30:00,35.5,21.3,30.25,West,263,9.0,9.0,56,0.00,,,0.00,Wunderground v.1.15,2013-12-26 21:30:00,
2013-12-26 16:35:00,35.1,21.4,30.25,West,279,8.0,9.0,57,0.00,,,0.00,Wunderground v.1.15,2013-12-26 21:35:00,
2013-12-26 16:40:00,34.8,21.1,30.25,West,271,9.0,11.0,57,0.00,,,0.00,Wunderground v.1.15,2013-12-26 21:40:00,
2013-12-26 16:45:00,34.4,20.7,30.26,West,277,9.0,11.0,57,0.00,,,0.00,Wunderground v.1.15,2013-12-26 21:45:00,
2013-12-26 16:50:00,33.9,20.7,30.26,West,279,9.0,9.0,58,0.00,,,0.00,Wunderground v.1.15,2013-12-26 21:50:00,
2013-12-26 16:55:00,33.5,21.1,30.26,West,273,8.0,9.0,60,0.00,,,0.00,Wunderground v.1.15,2013-12-26 21:55:00,
2013-12-26 17:05:00,32.9,20.9,30.27,West,278,5.0,6.0,61,0.00,,,0.00,Wunderground v.1.15,2013-12-26 22:05:00,
2013-12-26 17:15:00,32.6,20.6,30.26,WNW,288,6.0,6.0,61,0.00,,,0.00,Wunderground v.1.15,2013-12-26 22:15:00,
2013-12-26 17:20:00,32.3,20.0,30.27,West,271,6.0,11.0,60,0.00,,,0.00,Wunderground v.1.15,2013-12-26 22:20:00,
2013-12-26 17:25:00,32.4,19.7,30.27,WNW,292,6.0,11.0,59,0.00,,,0.00,Wunderground v.1.15,2013-12-26 22:25:00,
2013-12-26 17:30:00,32.0,19.7,30.27,West,279,6.0,6.0,60,0.00,,,0.00,Wunderground v.1.15,2013-12-26 22:30:00,
2013-12-26 17:40:00,31.6,20.1,30.28,WNW,294,5.0,5.0,62,0.00,,,0.00,Wunderground v.1.15,2013-12-26 22:40:00,
2013-12-26 17:45:00,31.4,19.9,30.28,WNW,292,5.0,5.0,62,0.00,,,0.00,Wunderground v.1.15,2013-12-26 22:45:00,
2013-12-26 17:50:00,31.3,19.8,30.28,WNW,300,5.0,5.0,62,0.00,,,0.00,Wunderground v.1.15,2013-12-26 22:50:00,
2013-12-26 17:55:00,31.1,20.0,30.28,WNW,300,4.0,5.0,63,0.00,,,0.00,Wunderground v.1.15,2013-12-26 22:55:00,
2013-12-26 18:05:00,30.6,19.9,30.29,WNW,292,3.0,5.0,64,0.00,,,0.00,Wunderground v.1.15,2013-12-26 23:05:00,
2013-12-26 18:15:00,30.2,20.2,30.29,WNW,292,1.0,4.0,66,0.00,,,0.00,Wunderground v.1.15,2013-12-26 23:15:00,
2013-12-26 18:20:00,29.9,19.9,30.30,WNW,292,1.0,1.0,66,0.00,,,0.00,Wunderground v.1.15,2013-12-26 23:20:00,
2013-12-26 18:25:00,29.6,20.0,30.30,WNW,292,1.0,4.0,67,0.00,,,0.00,Wunderground v.1.15,2013-12-26 23:25:00,
2013-12-26 18:30:00,29.3,20.0,30.31,WNW,292,0.0,4.0,68,0.00,,,0.00,Wunderground v.1.15,2013-12-26 23:30:00,
2013-12-26 18:35:00,29.2,19.9,30.30,WNW,292,1.0,4.0,68,0.00,,,0.00,Wunderground v.1.15,2013-12-26 23:35:00,
2013-12-26 18:40:00,29.0,19.8,30.30,WNW,292,1.0,1.0,68,0.00,,,0.00,Wunderground v.1.15,2013-12-26 23:40:00,
2013-12-26 18:45:00,29.1,20.2,30.31,WNW,291,2.0,3.0,69,0.00,,,0.00,Wunderground v.1.15,2013-12-26 23:45:00,
2013-12-26 18:50:00,29.3,20.4,30.31,WNW,291,3.0,3.0,69,0.00,,,0.00,Wunderground v.1.15,2013-12-26 23:50:00,
2013-12-26 19:00:00,29.2,20.6,30.31,NW,305,2.0,4.0,70,0.00,,,0.00,Wunderground v.1.15,2013-12-27 00:00:00,
2013-12-26 19:05:00,29.3,20.4,30.31,NW,305,3.0,4.0,69,0.00,,,0.00,Wunderground v.1.15,2013-12-27 00:05:00,
2013-12-26 19:10:00,29.4,20.8,30.32,WNW,293,3.0,5.0,70,0.00,,,0.00,Wunderground v.1.15,2013-12-27 00:10:00,
2013-12-26 19:20:00,29.5,20.6,30.32,WNW,290,3.0,3.0,69,0.00,,,0.00,Wunderground v.1.15,2013-12-27 00:20:00,
2013-12-26 19:25:00,29.4,20.8,30.32,WNW,290,2.0,4.0,70,0.00,,,0.00,Wunderground v.1.15,2013-12-27 00:25:00,
2013-12-26 19:30:00,29.3,20.7,30.32,WNW,290,2.0,4.0,70,0.00,,,0.00,Wunderground v.1.15,2013-12-27 00:30:00,
2013-12-26 19:35:00,29.2,21.0,30.32,WNW,290,1.0,4.0,71,0.00,,,0.00,Wunderground v.1.15,2013-12-27 00:35:00,
2013-12-26 19:40:00,28.9,21.0,30.32,WNW,290,0.0,4.0,72,0.00,,,0.00,Wunderground v.1.15,2013-12-27 00:40:00,
2013-12-26 19:50:00,28.5,20.6,30.32,WNW,290,0.0,4.0,72,0.00,,,0.00,Wunderground v.1.15,2013-12-27 00:50:00,
2013-12-26 19:55:00,28.2,20.3,30.32,WNW,290,1.0,4.0,72,0.00,,,0.00,Wunderground v.1.15,2013-12-27 00:55:00,
2013-12-26 20:05:00,27.8,20.3,30.31,WNW,290,0.0,4.0,73,0.00,,,0.00,Wunderground v.1.15,2013-12-27 01:05:00,
2013-12-26 20:10:00,27.6,20.7,30.32,WNW,290,0.0,4.0,75,0.00,,,0.00,Wunderground v.1.15,2013-12-27 01:10:00,
2013-12-26 20:15:00,27.5,20.9,30.31,WNW,290,0.0,4.0,76,0.00,,,0.00,Wunderground v.1.15,2013-12-27 01:15:00,
2013-12-26 20:20:00,27.5,21.2,30.31,WNW,290,0.0,4.0,77,0.00,,,0.00,Wunderground v.1.15,2013-12-27 01:20:00,
2013-12-26 20:30:00,27.4,21.7,30.32,WNW,290,0.0,4.0,79,0.00,,,0.00,Wunderground v.1.15,2013-12-27 01:30:00,
2013-12-26 20:35:00,27.4,22.0,30.32,WNW,290,0.0,4.0,80,0.00,,,0.00,Wunderground v.1.15,2013-12-27 01:35:00,
2013-12-26 20:40:00,27.4,22.0,30.32,WNW,290,0.0,4.0,80,0.00,,,0.00,Wunderground v.1.15,2013-12-27 01:40:00,
2013-12-26 20:45:00,27.5,22.1,30.32,WNW,290,0.0,4.0,80,0.00,,,0.00,Wunderground v.1.15,2013-12-27 01:45:00,
2013-12-26 20:50:00,27.5,22.1,30.31,WNW,290,0.0,4.0,80,0.00,,,0.00,Wunderground v.1.15,2013-12-27 01:50:00,
2013-12-26 21:00:00,27.5,22.4,30.31,WNW,290,0.0,4.0,81,0.00,,,0.00,Wunderground v.1.15,2013-12-27 02:00:00,
2013-12-26 21:10:00,27.6,22.8,30.31,WNW,290,0.0,4.0,82,0.00,,,0.00,Wunderground v.1.15,2013-12-27 02:10:00,
2013-12-26 21:15:00,27.6,22.5,30.31,WNW,290,0.0,4.0,81,0.00,,,0.00,Wunderground v.1.15,2013-12-27 02:15:00,
2013-12-26 21:20:00,27.6,22.8,30.31,WNW,290,0.0,4.0,82,0.00,,,0.00,Wunderground v.1.15,2013-12-27 02:20:00,
2013-12-26 21:25:00,27.7,22.9,30.32,WNW,290,0.0,4.0,82,0.00,,,0.00,Wunderground v.1.15,2013-12-27 02:25:00,
2013-12-26 21:35:00,27.7,22.9,30.32,WNW,290,0.0,4.0,82,0.00,,,0.00,Wunderground v.1.15,2013-12-27 02:35:00,
2013-12-26 21:40:00,27.7,22.9,30.32,WNW,290,0.0,4.0,82,0.00,,,0.00,Wunderground v.1.15,2013-12-27 02:40:00,
2013-12-26 21:45:00,27.7,22.9,30.32,WNW,290,0.0,4.0,82,0.00,,,0.00,Wunderground v.1.15,2013-12-27 02:45:00,
2013-12-26 21:50:00,27.6,22.8,30.32,WNW,290,0.0,4.0,82,0.00,,,0.00,Wunderground v.1.15,2013-12-27 02:50:00,
2013-12-26 21:55:00,27.6,22.8,30.31,WNW,290,0.0,4.0,82,0.00,,,0.00,Wunderground v.1.15,2013-12-27 02:55:00,
2013-12-26 22:00:00,27.7,22.9,30.31,WNW,290,0.0,4.0,82,0.00,,,0.00,Wunderground v.1.15,2013-12-27 03:00:00,
2013-12-26 22:10:00,27.7,23.2,30.31,WNW,290,0.0,4.0,83,0.00,,,0.00,Wunderground v.1.15,2013-12-27 03:10:00,
2013-12-26 22:15:00,27.7,23.2,30.31,WNW,290,0.0,4.0,83,0.00,,,0.00,Wunderground v.1.15,2013-12-27 03:15:00,
2013-12-26 22:25:00,27.6,22.8,30.32,WNW,290,0.0,4.0,82,0.00,,,0.00,Wunderground v.1.15,2013-12-27 03:25:00,
2013-12-26 22:30:00,27.8,22.7,30.32,WNW,290,0.0,4.0,81,0.00,,,0.00,Wunderground v.1.15,2013-12-27 03:30:00,
2013-12-26 22:35:00,28.0,22.6,30.32,WNW,290,0.0,4.0,80,0.00,,,0.00,Wunderground v.1.15,2013-12-27 03:35:00,
2013-12-26 22:45:00,28.1,22.7,30.31,WNW,290,0.0,4.0,80,0.00,,,0.00,Wunderground v.1.15,2013-12-27 03:45:00,
2013-12-26 22:50:00,28.1,23.0,30.31,WNW,290,0.0,4.0,81,0.00,,,0.00,Wunderground v.1.15,2013-12-27 03:50:00,
2013-12-26 22:55:00,28.1,23.0,30.31,WNW,290,0.0,4.0,81,0.00,,,0.00,Wunderground v.1.15,2013-12-27 03:55:00,
2013-12-26 23:00:00,28.1,23.0,30.31,WNW,290,0.0,4.0,81,0.00,,,0.00,Wunderground v.1.15,2013-12-27 04:00:00,
2013-12-26 23:05:00,28.1,23.3,30.31,WNW,290,0.0,4.0,82,0.00,,,0.00,Wunderground v.1.15,2013-12-27 04:05:00,
2013-12-26 23:15:00,28.1,23.6,30.31,WNW,290,0.0,4.0,83,0.00,,,0.00,Wunderground v.1.15,2013-12-27 04:15:00,
2013-12-26 23:20:00,28.1,23.6,30.31,WNW,290,0.0,4.0,83,0.00,,,0.00,Wunderground v.1.15,2013-12-27 04:20:00,
2013-12-26 23:30:00,28.1,23.6,30.31,WNW,290,0.0,4.0,83,0.00,,,0.00,Wunderground v.1.15,2013-12-27 04:30:00,
2013-12-26 23:35:00,28.0,23.5,30.30,WNW,290,0.0,4.0,83,0.00,,,0.00,Wunderground v.1.15,2013-12-27 04:35:00,
2013-12-26 23:40:00,28.0,23.5,30.30,WNW,290,0.0,4.0,83,0.00,,,0.00,Wunderground v.1.15,2013-12-27 04:40:00,
2013-12-26 23:50:00,28.0,23.5,30.30,WNW,290,0.0,4.0,83,0.00,,,0.00,Wunderground v.1.15,2013-12-27 04:50:00,
2013-12-26 23:55:00,28.0,23.5,30.30,WNW,290,0.0,4.0,83,0.00,,,0.00,Wunderground v.1.15,2013-12-27 04:55:00,